[[{"header":{"parameterUnit":"m.s-1","parameterCategory":1,"la1":30.2992,"la2":30.254,"lo1":-89.0895,"lo2":-89.0443,"dy":0.0025,"dx":0.0025,"nx":19,"ny":19,"refTime":"2026-05-20T09:00:00:Z","depth":0,"parameterNumber":2,"parameterNumberName":"U-component_of_WINDS"},"data":[0,0,0,-3.247,-3.247,-3.245,-3.2449,-3.2445,-3.2445,0,0,0,0,0,0,0,0,0,0,0,-3.2489,-3.249,-3.247,-3.247,-3.245,-3.2449,-3.2445,-3.2445,0,0,0,0,0,0,0,0,0,0,0,-3.2489,-3.2489,-3.249,-3.247,-3.245,-3.2449,-3.2445,-3.2453,0,0,0,0,0,0,0,0,0,0,-3.2469,-3.2499,-3.2489,-3.249,-3.247,-3.245,-3.2449,-3.2453,-3.2452,-3.2464,0,-3.2478,0,-3.2462,-3.2447,-3.2447,0,0,0,-3.246,-3.25,-3.2482,-3.249,-3.247,-3.245,-3.2456,-3.2452,-3.2452,-3.2463,-3.2477,-3.2477,-3.2462,-3.2447,-3.2447,-3.2546,-3.2547,0,0,-3.2461,-3.2493,-3.2483,-3.2483,-3.2487,-3.2457,-3.2455,-3.2452,-3.2469,-3.2477,-3.2476,-3.2462,-3.2447,-3.2447,-3.2545,-3.2546,0,0,0,-3.2471,-3.2494,-3.2476,-3.2484,-3.2478,-3.2456,-3.2455,-3.2469,-3.2461,-3.2476,-3.2461,-3.2447,-3.2447,-3.2544,-3.2545,-3.2621,0,0,0,-3.2471,-3.25,-3.2477,-3.2496,-3.2479,-3.2473,-3.2473,-3.2461,-3.2459,-3.2461,-3.2447,-3.2447,-3.2543,-3.2544,-3.2616,-3.2651,0,0,0,-3.2486,-3.2501,-3.2503,-3.2498,-3.249,-3.2473,-3.2464,-3.246,-3.2451,-3.2447,-3.2447,-3.2542,-3.2544,-3.2612,-3.2644,-3.2685,0,0,0,-3.2511,-3.2571,-3.2505,-3.2566,-3.2491,-3.252,-3.2463,-3.2484,-3.2489,-3.2447,-3.2543,-3.2545,-3.2611,-3.264,-3.2681,-3.2724,-3.2745,0,0,-3.2604,-3.2583,-3.2616,-3.2557,-3.2605,-3.252,-3.258,-3.2555,-3.2526,-3.2541,-3.2543,-3.2618,-3.2644,-3.2684,-3.2855,-3.2872,0,0,0,-3.2656,-3.2681,-3.2687,-3.2693,-3.2676,-3.2663,-3.2626,-3.2616,-3.2627,-3.254,-3.2643,-3.2658,-3.268,-3.2699,-3.2713,-3.273,-3.2556,-3.2555,-3.2555,-3.2832,-3.2792,-3.2844,-3.2801,-3.2809,-3.2769,-3.2771,-3.2752,-3.2709,-3.2734,-3.2738,-3.2846,-3.287,-3.2881,-3.2899,-3.2758,-3.2759,-3.2759,-3.2759,-3.2964,-3.2991,-3.2933,-3.2963,-3.292,-3.2944,-3.2909,-3.2878,-3.2895,-3.2841,-3.2858,-3.2801,-3.2901,-3.2914,-3.2764,-3.2763,-3.2763,-3.2762,-3.2762,-3.3073,-3.3079,-3.3067,-3.3072,-3.308,-3.3035,-3.3053,-3.3013,-3.2976,-3.2994,-3.2993,-3.2991,-3.2984,-3.2996,-3.2997,-3.2997,-3.2998,-3.2998,-3.2998,-3.3191,-3.3175,-3.3195,-3.3182,-3.318,-3.3173,-3.3135,-3.3132,-3.3119,-3.3089,-3.3089,-3.3043,-3.2918,-3.2887,-3.3004,-3.3003,-3.3002,-3.3001,-3.3001,-3.3337,-3.3298,-3.3329,-3.3328,-3.3308,-3.3319,-3.3268,-3.3266,-3.3259,-3.3269,-3.322,-3.3134,-3.311,-3.3098,-3.3072,-3.3229,-3.3229,-3.3229,-3.3229,-3.3428,-3.3412,-3.3435,-3.3435,-3.3431,-3.3389,-3.3425,-3.3396,-3.3359,-3.3352,-3.3324,-3.3286,-3.3276,-3.3257,-3.3242,-3.3217,-3.3407,-3.3408,-3.3408,-3.3515,-3.3497,-3.3535,-3.3499,-3.3481,-3.3467,-3.3499,-3.3501,-3.3452,-3.3414,-3.3345,-3.3337,-3.3276,-3.3258,-3.3218,-3.3195,-3.3148,0,0]},{"header":{"parameterUnit":"m.s-1","parameterCategory":1,"la1":30.2992,"la2":30.254,"lo1":-89.0895,"lo2":-89.0443,"dy":0.0025,"dx":0.0025,"nx":19,"ny":19,"refTime":"2026-05-20T09:00:00:Z","depth":0,"parameterNumber":3,"parameterNumberName":"V-component_of_WINDS"},"data":[0,0,0,3.7025,3.7028,3.7144,3.7144,3.7288,3.7289,0,0,0,0,0,0,0,0,0,0,0,3.6991,3.6991,3.7025,3.7028,3.7144,3.7144,3.7287,3.7289,0,0,0,0,0,0,0,0,0,0,0,3.699,3.6991,3.6992,3.7028,3.7144,3.7144,3.7287,3.7201,0,0,0,0,0,0,0,0,0,0,3.7089,3.7057,3.6991,3.6993,3.7029,3.7143,3.7144,3.7197,3.7206,3.7234,0,3.7261,0,3.7277,3.7299,3.7299,0,0,0,3.7028,3.7049,3.7081,3.6993,3.703,3.7143,3.7091,3.7202,3.7213,3.7247,3.7263,3.7268,3.728,3.7299,3.73,3.7468,3.7469,0,0,3.7021,3.701,3.7074,3.7088,3.7072,3.7088,3.7095,3.7209,3.7225,3.7263,3.7272,3.7282,3.73,3.7301,3.7467,3.7468,0,0,0,3.7003,3.7006,3.7035,3.7082,3.7103,3.7091,3.7099,3.7219,3.723,3.7273,3.7284,3.7301,3.7303,3.7467,3.7468,3.7498,0,0,0,3.6999,3.6995,3.7032,3.7027,3.7101,3.7163,3.7108,3.7222,3.7235,3.7283,3.7301,3.7304,3.7466,3.7467,3.7496,3.7514,0,0,0,3.6983,3.6994,3.701,3.7026,3.7076,3.7162,3.7179,3.7225,3.7242,3.7299,3.7305,3.7465,3.7467,3.7493,3.751,3.7556,0,0,0,3.6962,3.7034,3.7011,3.7095,3.7075,3.7181,3.7178,3.7257,3.731,3.7302,3.7466,3.7468,3.7493,3.7508,3.7553,3.7593,3.7609,0,0,3.7047,3.7044,3.7095,3.7077,3.7185,3.7164,3.7275,3.7332,3.7346,3.7426,3.743,3.7497,3.751,3.7555,3.7699,3.7711,0,0,0,3.7118,3.7154,3.7185,3.7236,3.7284,3.7325,3.7367,3.7388,3.7457,3.7386,3.7526,3.7534,3.7561,3.758,3.7591,3.7615,3.7476,3.7476,3.7476,3.7222,3.7239,3.7324,3.7354,3.7403,3.7447,3.7488,3.7523,3.7523,3.7556,3.758,3.7665,3.7687,3.7695,3.772,3.7602,3.7602,3.7602,3.7602,3.7348,3.7403,3.7403,3.7486,3.7502,3.7571,3.7615,3.7613,3.7679,3.7648,3.7673,3.7638,3.7708,3.7731,3.7604,3.7604,3.7604,3.7603,3.7603,3.7419,3.7448,3.7474,3.7551,3.7607,3.7634,3.7698,3.771,3.7721,3.7745,3.7772,3.7771,3.7772,3.7757,3.7757,3.7758,3.7758,3.7758,3.7758,3.7481,3.751,3.7564,3.7621,3.7656,3.7703,3.7748,3.7782,3.7822,3.7825,3.7825,3.7822,3.7713,3.7685,3.7763,3.7762,3.7762,3.7761,3.7761,3.7604,3.7578,3.7661,3.7697,3.7765,3.7821,3.7835,3.7903,3.7933,3.7964,3.7956,3.7873,3.787,3.7862,3.7839,3.7952,3.7952,3.7952,3.7952,3.7663,3.7664,3.7752,3.7807,3.7863,3.7885,3.7977,3.8012,3.8044,3.8063,3.8048,3.8019,3.801,3.8012,3.8,3.7979,3.8126,3.8126,3.8126,3.774,3.7746,3.7823,3.7857,3.7911,3.7957,3.8044,3.8106,3.8136,3.8133,3.8078,3.807,3.8023,3.8007,3.8003,3.7985,3.7946,0,0]}]]